ARIANE 3 DEB

基本信息
目录编号:
26809
目录名称:
ARIANE 3 DEB
国际标识:
1988-063J
轨道中心:
EARTH
物体状态:
在轨
发射日期:
1988-07-21 UTC
轨道信息
数据来源: 国际轨道数据
星历时间: 2024-10-11T12:40:26+0800
半长轴: 21570.629km
偏心率: 0.6869316
轨道倾角: 6.526°
近地点辐角: 232.709°
升交点赤经: 166.449°
平近点角: 43.224°
近地点: 374.947km
远地点: 30010.041km
周期: 525.477分钟
每日圈数: 2.740366
详细信息
发射场:
FRGUI
轨道高度:
LEO
数据来源:
AOE Integration Group
参考系:
TEME
时间系统:
UTC
历元类型:
SGP4
2D轨道图
3D轨道图
轨道高度分析图
轨道倾角分析图
轨道综合分析图
查看轨道综合分析图